Regional Weather Roundup
Issued by NWS Bismarck, ND

Home | Current Version | Previous Version | Text Only | Print | Product List | Glossary On
Versions: 1 2 3 4 5 6 7 8 9 10 11 12 13 14 15 16 17 18 19 20 21 22 23 24 25 26 27 28 29 30 31 32 33 34 35 36 37 38 39 40 41 42 43 44 45 46 47 48 49 50
000
ASUS43 KBIS 022102
RWRBIS

NWR BROADCAST TEXT
NATIONAL WEATHER SERVICE BISMARCK ND
400 PM CDT THU JUL 02 2015

NOTE: "FAIR" INDICATES FEW OR NO CLOUDS BELOW 12,000 FEET WITH NO
SIGNIFICANT WEATHER AND/OR OBSTRUCTIONS TO VISIBILITY.


CITY           SKY/WX    TMP DP  RH WIND       PRES   REMARKS
WILLISTON      MOSUNNY   83  58  42 NW8G16    30.01F
MINOT          MOSUNNY   79  62  56 NW12      29.96F HAZE
MINOT AFB      SUNNY     83  68  60 NW14      29.95F HAZE
BISMARCK       MOSUNNY   79  62  56 N13       29.97S HAZE
DICKINSON      MOSUNNY   78  58  49 N13       30.03S HAZE
GARRISON         N/A     78  63  59 NW12      29.98F
HETTINGER ARPT MOSUNNY   77  60  55 NW10      30.05F
JAMESTOWN      PTSUNNY   78  65  63 S9        29.95S
HAZEN          FAIR      75  61  60 NW9       30.00S HAZE
OAKES            N/A     73  64  73 S8        29.97F
STANLEY        FAIR      75  66  73 N12       30.02S
$$

CITY           SKY/WX    TMP DP  RH WIND       PRES   REMARKS
GRAND FORKS    PTSUNNY   80  64  58 S13       29.90F
GRAND FORKS AF PTSUNNY   78  66  66 SW8       29.90F
DEVILS LAKE    MOSUNNY   77  61  57 NW6       29.93S
FARGO          SUNNY     78  54  43 S8        29.96S
CAVALIER       FAIR      81  64  57 W9        29.89S HAZE
GRAFTON        MOCLDY    77  68  73 CALM      29.89F
GWINNER          N/A     77  55  47 S8        29.97F
LANGDON        FAIR      79  64  61 NW9       29.93S HAZE
$$

CITY           SKY/WX    TMP DP  RH WIND       PRES   REMARKS
ABERDEEN       MOSUNNY   71  64  78 S10       29.97F
MOBRIDGE       MOSUNNY   78  65  63 VRB3      29.95F HAZE
BUFFALO          N/A     79  56  45 N16G24    30.01S
RAPID CITY     SUNNY     80  56  43 NW18G29   30.07F
GLASGOW        MOSUNNY   82  56  40 NW12      30.05F
SIDNEY         SUNNY     81  57  44 NW8       30.03F
WOLF POINT     MOSUNNY   83  59  44 VRB6      30.04F
GLENDIVE       CLOUDY    81  55  41 N5        30.06S
MILES CITY     MOSUNNY   83  54  36 N15       30.06F
BAKER          FAIR      80  57  45 N12G20    30.08F HAZE
$$

CITY           SKY/WX    TMP DP  RH WIND       PRES   REMARKS
BILLINGS       MOSUNNY   84  51  31 NE10G23   30.13F
GREAT FALLS    FAIR      84  49  29 NE9       30.13F
$$




USA.gov is the U.S. government's official web portal to all federal, state and local government web resources and services.